Location: Kumla
(59.1265°N, 15.1401°E)
Time: 19:19:33
(UTC+01:00)

Vanguard 2 Rocket - Pass Details

Date: 12 December 2023
Orbit: 554 x 3309 km, 32.9° (Epoch: 26 February)

Event Time Altitude Azimuth Distance (km) Brightness Sun altitude
Rises 18:09:29 0° 264° (W) 6,897 12.9 -21.7°
Reaches altitude 10° 18:16:35 10° 247° (WSW) 6,151 12.1 -22.6°
Maximum altitude 18:26:41 17° 216° (SW) 5,678 11.4 -23.9°
Drops below altitude 10° 18:36:41 10° 185° (S) 6,034 11.1 -25.2°
Sets 18:43:37 0° 167° (SSE) 6,706 11.2 -26.1°
